Location: Lawrence
(38.9720°N, 95.2350°W)
Time: 22:36:41
(UTC-05:00)

Amateur Radio Satellites - All Passes

Search period start: 25 May 2015 22:06
Search period end: 26 May 2015 22:06
Location: Lawrence, 38.9720°N, 95.2350°W

Satellite Date Start Highest point End Downlink Frequencies (MHz)
Time Altitude Azimuth
Cosmos 2491 25 May 22:07:55 22:15:00 25° 294° (WNW) 22:21:48 435.465 / 435.565
YUBILEINY 25 May 22:09:53 22:12:00 11° 284° (WNW) 22:13:18 435.215
BRITE-PL 25 May 22:12:00 22:14:35 13° 274° (W) 22:16:56 437.365/2234.400
RS-15 25 May 22:13:42 22:17:58 12° 262° (W) 22:20:55 29.354- 29.394
Cosmos 2504 25 May 22:15:52 22:23:08 86° 82° (E) 22:30:22 435.465 / 435.565
AAUSAT CUBESAT 2 25 May 22:17:43 22:21:32 34° 263° (W) 22:25:20 437.432
GOMX 1 25 May 22:20:39 22:24:02 17° 272° (W) 22:27:19 467.674
50 SAT 25 May 22:33:03 22:35:57 20° 69° (ENE) 22:38:56 437.505
CUBEBUG 2 25 May 22:38:00 22:42:40 55° 261° (W) 22:47:22 437.445
ZACube-1 25 May 22:45:44 22:50:20 70° 259° (W) 22:54:55 437.345
UNISAT 6 25 May 22:49:29 22:51:13 12° 89° (E) 22:53:11 437.425
UKube-1 25 May 22:50:48 22:55:04 61° 74° (ENE) 22:59:21 .
HUMSAT D 25 May 22:51:21 22:55:37 61° 75° (ENE) 22:59:53 437.325/437.525
DELFI C3 25 May 22:54:06 22:57:53 38° 262° (W) 23:01:40 145.870
DX 1 25 May 22:57:25 23:01:46 79° 76° (ENE) 23:06:09 434.975-435.025
Oscar 11 25 May 23:02:42 23:06:19 25° 265° (W) 23:09:52 145.826/435.025
ESTCUBE 1 25 May 23:04:33 23:08:13 26° 69° (ENE) 23:11:58 437.505/2401.250
VELOX 1 25 May 23:06:24 23:10:37 46° 73° (ENE) 23:14:55 145.980
CUBEBUG 1 25 May 23:09:20 23:12:50 25° 69° (ENE) 23:16:27 437.445
CINEMA 3 25 May 23:16:54 23:19:21 13° 273° (W) 23:21:31 145.822/145.860
UWE-3 25 May 23:29:44 23:33:14 20° 268° (W) 23:36:37 435.000/436.395/437.385
ANTELSAT 25 May 23:30:55 23:35:00 37° 97° (E) 23:39:00 437.575/2403.000
DANDE 25 May 23:33:01 23:37:49 18° 57° (ENE) 23:42:25 436.750
AISAT 25 May 23:37:19 23:41:45 76° 258° (WSW) 23:46:14 437.250
NANOSAT C BR1 25 May 23:38:34 23:41:38 20° 93° (E) 23:44:49 145.865
FUNcube-1 25 May 23:43:45 23:46:57 18° 269° (W) 23:49:59 145.935
QB50P2 25 May 23:45:16 23:48:45 24° 95° (E) 23:52:16 145.880/145.840
SPROUT 25 May 23:53:41 23:56:51 21° 68° (ENE) 00:00:07 437.525
POPSAT HIP 1 25 May 23:57:36 00:01:28 32° 96° (E) 00:05:20 437.405
DUCHIFAT 1 26 May 00:00:37 00:04:31 34° 97° (E) 00:08:24 145.980
TIGRISAT 26 May 00:04:10 00:08:36 89° 112° (ESE) 00:12:54 435.000
50 SAT 26 May 00:06:59 00:10:31 29° 264° (W) 00:14:00 437.505
Cosmos 2504 26 May 00:12:06 00:15:38 14° 279° (W) 00:18:39 435.465 / 435.565
CUSAT 1 26 May 00:12:33 00:19:20 39° 69° (ENE) 00:24:48 437.405
TISAT 1 26 May 00:21:31 00:25:12 30° 71° (ENE) 00:28:58 437.305
UNISAT 6 26 May 00:24:08 00:28:26 52° 287° (WNW) 00:32:37 437.425
BUGSAT 1 26 May 00:29:26 00:33:38 51° 100° (E) 00:37:46 437.445
UKube-1 26 May 00:30:33 00:31:41 11° 271° (W) 00:32:31 .
HUMSAT D 26 May 00:30:36 00:31:49 11° 272° (W) 00:32:45 437.325/437.525
GONETS M04 26 May 00:36:17 00:44:36 45° 74° (ENE) 00:52:54
ISS 26 May 00:37:53 00:41:07 87° 313° (NW) 00:44:24 145.825
ESTCUBE 1 26 May 00:41:11 00:45:02 27° 265° (W) 00:48:50 437.505/2401.250
QB50P1 26 May 00:41:31 00:45:49 75° 284° (WNW) 00:50:03 145.935-145.965
POLYITAN 1 26 May 00:42:48 00:47:06 71° 284° (WNW) 00:51:19 437.675
VELOX 1 26 May 00:44:52 00:47:30 15° 269° (W) 00:49:56 145.980
CUBEBUG 1 26 May 00:45:22 00:49:07 27° 265° (W) 00:52:50 437.445
BEESAT 26 May 00:48:04 00:48:54 11° 62° (ENE) 00:50:01 436.000
SWISSCUBE 26 May 00:54:46 00:57:04 14° 64° (ENE) 00:59:36 437.505
ANTELSAT 26 May 01:08:27 01:11:31 18° 293° (WNW) 01:14:26 437.575/2403.000
NANOSAT C BR1 26 May 01:13:44 01:17:34 32° 289° (WNW) 01:21:21 145.865
DANDE 26 May 01:14:34 01:22:36 89° 259° (WSW) 01:28:51 436.750
QB50P2 26 May 01:20:59 01:24:36 26° 290° (WNW) 01:28:09 145.880/145.840
PCSat 26 May 01:27:25 01:32:37 52° 113° (ESE) 01:37:54 145.827
SPROUT 26 May 01:28:50 01:32:44 33° 264° (W) 01:36:39 437.525
POPSAT HIP 1 26 May 01:33:56 01:37:09 20° 292° (WNW) 01:40:14 437.405
DUCHIFAT 1 26 May 01:37:00 01:40:07 19° 292° (WNW) 01:43:05 145.980
CUSAT 1 26 May 01:55:33 02:01:51 33° 274° (W) 02:06:51 437.405
TISAT 1 26 May 01:57:44 02:01:02 21° 266° (W) 02:04:15 437.305
VERMONT LUNAR 26 May 02:04:23 02:06:34 17° 149° (SSE) 02:08:49 437.305
BUGSAT 1 26 May 02:06:26 02:08:42 14° 294° (WNW) 02:10:45 437.445
Oscar 19 26 May 02:11:05 02:15:35 31° 95° (E) 02:20:08 437.125/150
ITUPSAT 1 26 May 02:12:54 02:17:39 79° 75° (ENE) 02:22:26 437.325
O/OREOS (USA 219) 26 May 02:13:58 02:18:20 51° 65° (ENE) 02:22:42 437.305
ISS 26 May 02:15:49 02:17:58 16° 339° (NNW) 02:20:05 145.825
BEESAT 26 May 02:21:23 02:26:08 83° 255° (WSW) 02:30:56 436.000
ITAMSAT 1 26 May 02:25:10 02:26:17 11° 87° (E) 02:27:47 435.822/435.867
SWISSCUBE 26 May 02:29:46 02:34:28 62° 259° (W) 02:39:12 437.505
GONETS M04 26 May 02:33:26 02:41:20 37° 273° (W) 02:48:59
KKS-1 26 May 02:45:04 02:48:56 30° 70° (ENE) 02:52:52 437.445
Cosmos 2499 26 May 02:48:20 02:55:15 55° 78° (ENE) 03:02:15 435.465 / 435.565
Gurwin Techsat 1B 26 May 02:53:37 02:57:35 22° 92° (E) 03:01:41 435.225
DANDE 26 May 03:00:24 03:04:27 15° 282° (WNW) 03:07:40 436.750
PCSat 26 May 03:12:01 03:16:23 23° 312° (NW) 03:20:39 145.827
SO-50 26 May 03:12:03 03:15:35 22° 111° (ESE) 03:19:20 436.795
BEESAT 3 26 May 03:17:14 03:20:50 29° 51° (NE) 03:24:25 437.485
VERMONT LUNAR 26 May 03:40:15 03:43:28 72° 163° (SSE) 03:46:40 437.305
AIST 2 26 May 03:47:33 03:50:18 17° 44° (NE) 03:53:07 435.215
Oscar 19 26 May 03:50:25 03:54:55 30° 291° (WNW) 03:59:18 437.125/150
STARS 26 May 03:51:26 03:55:53 82° 257° (WSW) 04:00:22 437.465
O/OREOS (USA 219) 26 May 03:55:06 03:57:22 13° 260° (W) 03:59:22 437.305
PHONESAT 2.4 26 May 03:55:20 03:58:30 33° 154° (SSE) 04:01:41 2401.200-2431.200
ITAMSAT 1 26 May 04:01:17 04:06:31 81° 286° (WNW) 04:11:45 435.822/435.867
BEESAT 2 26 May 04:04:08 04:08:15 75° 57° (ENE) 04:12:18 435.950
MOZHAYETS 4 26 May 04:06:52 04:09:50 18° 67° (ENE) 04:12:57
AO-7 26 May 04:16:47 04:23:11 25° 93° (E) 04:29:53 29.400- 29.500
KKS-1 26 May 04:21:56 04:25:35 24° 266° (W) 04:29:11 437.445
Gurwin Techsat 1B 26 May 04:32:45 04:37:48 44° 289° (WNW) 04:42:48 435.225
Cosmos 2499 26 May 04:42:34 04:47:57 23° 275° (W) 04:53:07 435.465 / 435.565
SO-50 26 May 04:51:26 04:55:53 41° 308° (NW) 05:00:29 436.795
BEESAT 3 26 May 04:55:26 04:58:42 23° 247° (WSW) 05:01:52 437.485
HORYU 2 26 May 05:05:47 05:10:14 77° 103° (ESE) 05:14:38 437.375
JAS-2 26 May 05:10:25 05:15:36 72° 102° (ESE) 05:20:56 435.910
VERMONT LUNAR 26 May 05:17:32 05:20:43 63° 359° (N) 05:23:54 437.305
AIST 2 26 May 05:25:07 05:29:13 52° 243° (WSW) 05:33:14 435.215
ISS 26 May 05:31:00 05:33:00 15° 19° (NNE) 05:35:03 145.825
PHONESAT 2.4 26 May 05:33:00 05:36:28 80° 347° (NNW) 05:39:57 2401.200-2431.200
MOZHAYETS 4 26 May 05:42:24 05:46:47 43° 262° (W) 05:51:08
CUBESAT XI-V 26 May 05:43:09 05:45:36 15° 66° (ENE) 05:48:16 437.345
ITAMSAT 1 26 May 05:44:52 05:45:18 10° 300° (WNW) 05:45:23 435.822/435.867
AO-7 26 May 06:08:23 06:16:41 68° 291° (WNW) 06:24:57 29.400- 29.500
M-CUBED/EXP-1 PRIME 26 May 06:20:27 06:21:41 11° 62° (ENE) 06:23:06 437.505
Cosmos 2491 26 May 06:20:59 06:28:33 32° 69° (ENE) 06:36:17 435.465 / 435.565
Cubesat XI-IV 26 May 06:28:05 06:30:56 15° 89° (E) 06:34:04 437.490
AUBIESAT-1 26 May 06:29:14 06:30:48 12° 63° (ENE) 06:32:32 437.475
STRAND 1 26 May 06:35:28 06:39:28 24° 67° (ENE) 06:43:36 437.568
HORYU 2 26 May 06:45:57 06:46:19 10° 297° (WNW) 06:46:25 437.375
VERMONT LUNAR 26 May 06:54:49 06:58:00 75° 196° (SSW) 07:01:11 437.305
JAS-2 26 May 06:57:51 07:00:15 13° 298° (WNW) 07:02:23 435.910
ISS 26 May 07:06:37 07:09:53 77° 37° (NE) 07:13:09 145.825
PHONESAT 2.4 26 May 07:11:16 07:14:44 71° 6° (N) 07:18:11 2401.200-2431.200
YUBILEINY 26 May 07:12:12 07:19:12 29° 85° (E) 07:26:27 435.215
CUBESAT XI-V 26 May 07:18:09 07:22:38 54° 261° (W) 07:27:11 437.345
PRISM 26 May 07:30:07 07:34:11 82° 256° (WSW) 07:38:18 437.425
AIST 1 26 May 07:45:47 07:49:03 21° 73° (ENE) 07:52:26
CUTE-I 26 May 07:45:52 07:51:16 83° 103° (ESE) 07:56:39 437.470
M-CUBED/EXP-1 PRIME 26 May 07:51:56 07:56:13 63° 254° (WSW) 08:00:11 437.505
AUBIESAT-1 26 May 08:01:05 08:05:18 57° 254° (WSW) 08:09:11 437.475
AO-7 26 May 08:03:42 08:08:09 15° 310° (NW) 08:12:09 29.400- 29.500
Cubesat XI-IV 26 May 08:06:15 08:11:35 64° 287° (WNW) 08:16:53 437.490
RS-15 26 May 08:09:15 08:16:39 23° 103° (ESE) 08:24:44 29.354- 29.394
STRAND 1 26 May 08:13:46 08:18:30 38° 262° (W) 08:23:13 437.568
Cosmos 2491 26 May 08:17:21 08:25:53 54° 269° (W) 08:34:17 435.465 / 435.565
VERMONT LUNAR 26 May 08:32:35 08:34:54 18° 211° (SSW) 08:37:09 437.305
BRITE-PL 26 May 08:37:05 08:41:49 28° 92° (E) 08:46:29 437.365/2234.400
GOMX 1 26 May 08:44:55 08:48:42 20° 89° (E) 08:52:31 467.674
PHONESAT 2.4 26 May 08:49:27 08:52:48 46° 203° (SSW) 08:56:08 2401.200-2431.200
Cosmos 2504 26 May 09:04:38 09:07:14 12° 80° (E) 09:10:25 435.465 / 435.565
YUBILEINY 26 May 09:06:57 09:15:35 58° 282° (WNW) 09:24:09 435.215
CANX-2 26 May 09:07:10 09:10:00 18° 92° (E) 09:12:59 2200.000
CUTE 1.7 + AOD 2 26 May 09:10:52 09:13:42 18° 92° (E) 09:16:39 437.475
AIST 1 26 May 09:22:54 09:26:47 30° 269° (W) 09:30:35
CUTE-I 26 May 09:28:14 09:30:43 13° 298° (WNW) 09:32:56 437.470
HO-68 26 May 09:34:11 09:40:54 43° 98° (E) 09:47:39 435.675
SEEDS 26 May 09:34:19 09:37:51 27° 95° (E) 09:41:26 437.485
CINEMA 3 26 May 09:34:34 09:37:35 17° 90° (E) 09:40:42 145.822/145.860
UNISAT 6 26 May 09:47:59 09:49:37 12° 64° (ENE) 09:51:31 437.425
COMPASS 1 26 May 09:48:48 09:52:31 31° 96° (E) 09:56:14 437.405
DOVE 4 26 May 09:49:01 09:54:04 55° 99° (E) 09:58:48 437.250
AAUSAT CUBESAT 2 26 May 10:01:34 10:05:26 38° 97° (E) 10:09:18 437.432
BRITE-PL 26 May 10:15:11 10:20:25 38° 290° (WNW) 10:25:23 437.365/2234.400
PCSat 26 May 10:16:36 10:21:27 33° 53° (NE) 10:26:21 145.827
RS-15 26 May 10:16:54 10:27:49 84° 302° (WNW) 10:39:03 29.354- 29.394
GOMX 1 26 May 10:21:58 10:27:09 48° 288° (WNW) 10:32:03 467.674
ANTELSAT 26 May 10:28:32 10:32:39 31° 71° (ENE) 10:36:47 437.575/2403.000
PHONESAT 2.4 26 May 10:29:57 10:30:26 10° 216° (SW) 10:30:47 2401.200-2431.200
CUBEBUG 2 26 May 10:30:57 10:34:58 33° 96° (E) 10:38:54 437.445
NANOSAT C BR1 26 May 10:31:04 10:33:11 14° 66° (ENE) 10:35:29 145.865
DELFI C3 26 May 10:34:35 10:38:03 28° 96° (E) 10:41:34 145.870
ZACube-1 26 May 10:36:32 10:39:59 24° 93° (E) 10:43:27 437.345
QB50P2 26 May 10:37:48 10:40:32 17° 67° (ENE) 10:43:25 145.880/145.840
HUMSAT D 26 May 10:39:55 10:40:15 10° 88° (E) 10:40:52 437.325/437.525
UKube-1 26 May 10:42:00 10:43:07 11° 89° (E) 10:44:32 .
CANX-2 26 May 10:42:15 10:46:05 34° 288° (WNW) 10:49:51 2200.000
CUTE 1.7 + AOD 2 26 May 10:45:55 10:49:45 34° 288° (WNW) 10:53:33 437.475
DX 1 26 May 10:48:25 10:50:50 15° 91° (E) 10:53:28 434.975-435.025
POPSAT HIP 1 26 May 10:49:40 10:52:56 22° 69° (ENE) 10:56:20 437.405
Oscar 11 26 May 10:50:17 10:54:33 63° 100° (E) 10:58:49 145.826/435.025
Cosmos 2504 26 May 10:51:16 10:59:40 77° 95° (E) 11:07:32 435.465 / 435.565
DUCHIFAT 1 26 May 10:52:13 10:55:32 23° 69° (ENE) 10:58:58 145.980
TIGRISAT 26 May 11:01:07 11:05:46 68° 75° (ENE) 11:10:25 435.000
SEEDS 26 May 11:10:13 11:13:34 23° 290° (WNW) 11:16:47 437.485
CINEMA 3 26 May 11:10:36 11:15:07 43° 287° (WNW) 11:19:22 145.822/145.860
BUGSAT 1 26 May 11:18:31 11:22:07 30° 71° (ENE) 11:25:50 437.445
UWE-3 26 May 11:19:43 11:24:09 83° 284° (WNW) 11:28:24 435.000/436.395/437.385
UNISAT 6 26 May 11:21:11 11:25:53 72° 259° (WSW) 11:30:33 437.425
HO-68 26 May 11:22:08 11:28:32 35° 295° (WNW) 11:34:47 435.675
COMPASS 1 26 May 11:24:58 11:28:01 19° 291° (WNW) 11:30:57 437.405
DOVE 4 26 May 11:27:57 11:31:20 17° 295° (WNW) 11:34:25 437.250
AISAT 26 May 11:29:54 11:33:24 23° 94° (E) 11:36:59 437.250
FUNcube-1 26 May 11:31:54 11:36:14 79° 284° (WNW) 11:40:27 145.935
QB50P1 26 May 11:32:42 11:36:57 69° 76° (ENE) 11:41:14 145.935-145.965
POLYITAN 1 26 May 11:34:14 11:38:31 73° 75° (ENE) 11:42:51 437.675
AAUSAT CUBESAT 2 26 May 11:38:06 11:40:46 16° 292° (WNW) 11:43:19 437.432
SO-50 26 May 11:44:09 11:47:39 19° 43° (NE) 11:51:15 436.795
50 SAT 26 May 11:44:18 11:47:49 33° 97° (E) 11:51:19 437.505
PCSat 26 May 12:00:00 12:04:53 34° 250° (WSW) 12:09:39 145.827
NANOSAT C BR1 26 May 12:04:28 12:08:38 50° 261° (W) 12:12:50 145.865
ANTELSAT 26 May 12:05:33 12:09:26 25° 266° (W) 12:13:14 437.575/2403.000
CUBEBUG 2 26 May 12:08:06 12:11:28 21° 292° (WNW) 12:14:38 437.445
DELFI C3 26 May 12:10:01 12:13:01 20° 291° (WNW) 12:15:57 145.870
QB50P2 26 May 12:12:06 12:16:09 40° 262° (W) 12:20:12 145.880/145.840
HUMSAT D 26 May 12:12:22 12:16:29 58° 285° (WNW) 12:20:30 437.325/437.525
ZACube-1 26 May 12:12:39 12:16:21 27° 290° (WNW) 12:19:54 437.345
UKube-1 26 May 12:15:25 12:19:43 60° 286° (WNW) 12:23:59 .
DX 1 26 May 12:23:10 12:27:23 45° 287° (WNW) 12:31:34 434.975-435.025
POPSAT HIP 1 26 May 12:24:53 12:28:41 30° 264° (W) 12:32:27 437.405
DUCHIFAT 1 26 May 12:27:31 12:31:15 28° 265° (W) 12:34:56 145.980
Oscar 11 26 May 12:28:47 12:30:16 11° 295° (WNW) 12:31:32 145.826/435.025
RS-15 26 May 12:33:03 12:42:13 28° 329° (NNW) 12:51:25 29.354- 29.394
ESTCUBE 1 26 May 12:34:08 12:38:40 67° 102° (ESE) 12:43:11 437.505/2401.250
VELOX 1 26 May 12:34:14 12:38:44 72° 284° (WNW) 12:43:11 145.980
CUBEBUG 1 26 May 12:34:35 12:38:59 58° 100° (E) 12:43:22 437.445
DANDE 26 May 12:40:51 12:45:44 21° 81° (E) 12:51:33 436.750
TIGRISAT 26 May 12:41:25 12:43:02 11° 272° (W) 12:44:21 435.000
Cosmos 2504 26 May 12:47:57 12:53:56 20° 294° (WNW) 12:59:19 435.465 / 435.565
JUGNU 26 May 12:50:04 12:51:36 11° 178° (S) 12:53:10 437.505
BUGSAT 1 26 May 12:54:31 12:57:40 20° 267° (W) 13:00:44 437.445
AISAT 26 May 13:06:01 13:10:02 31° 290° (WNW) 13:13:58 437.250
CUSAT 1 26 May 13:14:33 13:21:20 49° 91° (E) 13:29:13 437.405
SPROUT 26 May 13:16:16 13:20:27 45° 99° (E) 13:24:36 437.525
50 SAT 26 May 13:19:46 13:22:18 16° 292° (WNW) 13:24:41 437.505
SO-50 26 May 13:23:46 13:28:42 63° 242° (WSW) 13:33:30 436.795
Oscar 19 26 May 13:26:36 13:31:24 40° 71° (ENE) 13:36:16 437.125/150
GONETS M04 26 May 13:35:19 13:43:47 55° 91° (E) 13:52:21
ITAMSAT 1 26 May 13:41:09 13:44:14 17° 64° (ENE) 13:47:31 435.822/435.867
TISAT 1 26 May 13:42:13 13:46:29 65° 101° (E) 13:50:42 437.305
SRMSAT 26 May 14:06:20 14:07:28 11° 175° (S) 14:08:38 437.500
CUBEBUG 1 26 May 14:12:43 14:14:54 13° 295° (WNW) 14:16:53 437.445
ESTCUBE 1 26 May 14:13:12 14:15:02 12° 296° (WNW) 14:16:40 437.505/2401.250
Gurwin Techsat 1B 26 May 14:13:25 14:17:59 31° 69° (ENE) 14:22:39 435.225
ITUPSAT 1 26 May 14:15:26 14:19:06 22° 94° (E) 14:22:53 437.325
DANDE 26 May 14:21:00 14:27:58 76° 281° (W) 14:36:24 436.750
BEESAT 26 May 14:23:17 14:27:18 27° 95° (E) 14:31:24 436.000
SWISSCUBE 26 May 14:31:25 14:35:49 36° 97° (E) 14:40:14 437.505
RS-15 26 May 14:53:05 15:00:01 18° 4° (N) 15:07:13 29.354- 29.394
SPROUT 26 May 14:53:33 14:56:12 16° 293° (WNW) 14:58:42 437.525
CUSAT 1 26 May 14:57:37 15:04:19 36° 292° (WNW) 15:11:42 437.405
Oscar 19 26 May 15:06:46 15:10:56 23° 267° (W) 15:14:58 437.125/150
AO-7 26 May 15:14:37 15:21:37 33° 60° (ENE) 15:28:48 29.400- 29.500
ITAMSAT 1 26 May 15:18:11 15:23:18 60° 260° (W) 15:28:26 435.822/435.867
TISAT 1 26 May 15:20:26 15:21:46 11° 296° (WNW) 15:22:51 437.305
JAS-2 26 May 15:21:23 15:26:54 29° 69° (ENE) 15:32:03 435.910
Cosmos 2499 26 May 15:22:44 15:30:29 49° 91° (E) 15:37:46 435.465 / 435.565
GONETS M04 26 May 15:33:19 15:41:05 32° 291° (WNW) 15:48:40
STARS 26 May 15:43:19 15:46:30 20° 93° (E) 15:49:49 437.465
ITUPSAT 1 26 May 15:52:44 15:57:07 36° 289° (WNW) 16:01:27 437.325
Gurwin Techsat 1B 26 May 15:53:14 15:57:56 31° 264° (W) 16:02:36 435.225
SRMSAT 26 May 15:54:49 15:55:44 10° 185° (S) 15:56:37 437.500
BEESAT 26 May 16:00:59 16:05:08 29° 291° (WNW) 16:09:13 436.000
HORYU 2 26 May 16:02:38 16:07:03 61° 74° (ENE) 16:11:29 437.375
DANDE 26 May 16:08:29 16:13:03 16° 304° (NW) 16:17:28 436.750
SWISSCUBE 26 May 16:09:44 16:13:29 23° 293° (WNW) 16:17:08 437.505
KKS-1 26 May 16:13:10 16:17:39 72° 102° (ESE) 16:22:05 437.445
O/OREOS (USA 219) 26 May 16:24:43 16:29:14 79° 111° (ESE) 16:33:45 437.305
JAS-2 26 May 17:05:24 17:11:54 44° 261° (W) 17:17:39 435.910
AO-7 26 May 17:05:57 17:14:04 57° 258° (WSW) 17:22:13 29.400- 29.500
RS-15 26 May 17:07:20 17:17:25 34° 37° (NE) 17:28:06 29.354- 29.394
Cosmos 2499 26 May 17:16:46 17:23:53 31° 288° (WNW) 17:30:25 435.465 / 435.565
STARS 26 May 17:19:02 17:23:05 34° 289° (WNW) 17:27:03 437.465
YUBILEINY 26 May 17:25:19 17:28:06 12° 56° (NE) 17:31:35 435.215
CUTE-I 26 May 17:29:32 17:32:24 15° 63° (ENE) 17:35:30 437.470
MOZHAYETS 4 26 May 17:38:29 17:42:53 46° 99° (E) 17:47:17
HORYU 2 26 May 17:42:29 17:44:10 12° 271° (W) 17:45:34 437.375
Cubesat XI-IV 26 May 17:48:39 17:52:40 23° 66° (ENE) 17:56:51 437.490
KKS-1 26 May 17:52:23 17:53:44 11° 297° (WNW) 17:54:51 437.445
BEESAT 2 26 May 17:57:46 18:00:35 19° 112° (ESE) 18:03:32 435.950
O/OREOS (USA 219) 26 May 18:07:56 18:09:20 11° 309° (NW) 18:10:30 437.305
BEESAT 3 26 May 18:46:00 18:50:04 82° 120° (ESE) 18:54:12 437.485
CUTE-I 26 May 19:06:40 19:11:57 69° 258° (WSW) 19:17:17 437.470
PRISM 26 May 19:14:55 19:17:13 15° 92° (E) 19:19:43 437.425
CUBESAT XI-V 26 May 19:15:58 19:20:23 40° 98° (E) 19:24:50 437.345
MOZHAYETS 4 26 May 19:16:50 19:19:47 17° 293° (WNW) 19:22:34
YUBILEINY 26 May 19:18:23 19:27:03 68° 80° (E) 19:35:42 435.215
RS-15 26 May 19:19:35 19:31:17 81° 241° (WSW) 19:43:25 29.354- 29.394
Cosmos 2491 26 May 19:20:42 19:28:26 38° 87° (E) 19:36:23 435.465 / 435.565
AIST 2 26 May 19:21:37 19:25:37 43° 116° (ESE) 19:29:43 435.215
Cubesat XI-IV 26 May 19:27:29 19:32:32 43° 262° (W) 19:37:36 437.490
BEESAT 2 26 May 19:34:35 19:38:26 37° 307° (NW) 19:42:19 435.950
BRITE-PL 26 May 19:46:32 19:50:42 27° 67° (ENE) 19:55:15 437.365/2234.400
GOMX 1 26 May 19:51:42 19:55:18 20° 65° (ENE) 19:59:12 467.674
CANX-2 26 May 20:00:25 20:02:06 12° 66° (ENE) 20:03:59 2200.000
HO-68 26 May 20:02:04 20:07:58 30° 63° (ENE) 20:14:02 435.675
CUTE 1.7 + AOD 2 26 May 20:04:05 20:05:42 12° 66° (ENE) 20:07:32 437.475
AIST 1 26 May 20:15:49 20:17:30 12° 86° (E) 20:19:25
STRAND 1 26 May 20:24:55 20:30:06 80° 103° (ESE) 20:35:16 437.568
SEEDS 26 May 20:26:01 20:28:47 18° 68° (ENE) 20:31:40 437.485
BEESAT 3 26 May 20:27:01 20:28:40 12° 319° (NW) 20:30:10 437.485
CINEMA 3 26 May 20:35:09 20:38:11 17° 66° (ENE) 20:41:27 145.822/145.860
COMPASS 1 26 May 20:39:32 20:42:32 20° 69° (ENE) 20:45:37 437.405
Cosmos 2504 26 May 20:46:30 20:51:46 22° 67° (ENE) 20:57:18 435.465 / 435.565
PRISM 26 May 20:48:59 20:52:54 41° 288° (WNW) 20:56:48 437.425
AAUSAT CUBESAT 2 26 May 20:51:40 20:54:55 23° 70° (ENE) 20:58:15 437.432
DOVE 4 26 May 20:52:35 20:57:27 49° 73° (ENE) 21:02:34 437.250
CUBESAT XI-V 26 May 20:54:07 20:57:34 20° 292° (WNW) 21:00:54 437.345
AIST 2 26 May 21:01:12 21:04:25 20° 314° (NW) 21:07:35 435.215
M-CUBED/EXP-1 PRIME 26 May 21:09:10 21:12:26 61° 289° (WNW) 21:15:42 437.505
YUBILEINY 26 May 21:16:35 21:23:12 24° 277° (W) 21:29:26 435.215
Cosmos 2491 26 May 21:16:50 21:25:12 45° 286° (WNW) 21:33:33 435.465 / 435.565
AUBIESAT-1 26 May 21:17:39 21:20:53 54° 290° (WNW) 21:24:08 437.475
DELFI C3 26 May 21:21:51 21:24:15 16° 68° (ENE) 21:26:48 145.870
BRITE-PL 26 May 21:24:22 21:29:03 36° 265° (W) 21:34:00 437.365/2234.400
CUBEBUG 2 26 May 21:27:46 21:31:44 28° 70° (ENE) 21:35:47 437.445
GOMX 1 26 May 21:28:02 21:32:59 52° 262° (W) 21:38:15 467.674
ZACube-1 26 May 21:31:38 21:34:47 19° 68° (ENE) 21:38:03 437.345
CANX-2 26 May 21:33:24 21:37:36 56° 260° (W) 21:41:49 2200.000
RS-15 26 May 21:34:47 21:42:23 18° 259° (WSW) 21:49:13 29.354- 29.394
CUTE 1.7 + AOD 2 26 May 21:37:00 21:41:12 57° 260° (W) 21:45:24 437.475
Oscar 11 26 May 21:43:49 21:47:53 41° 73° (ENE) 21:51:59 145.826/435.025
DX 1 26 May 21:44:07 21:45:44 12° 64° (ENE) 21:47:35 434.975-435.025
HO-68 26 May 21:48:24 21:55:24 53° 260° (W) 22:02:23 435.675
AIST 1 26 May 21:50:39 21:54:46 46° 281° (W) 21:58:54
